| time (UTC) | temp C | wind direction | speed KPH | gust KPH | rain 1hr cm | rain 24hr cm | rain mn cm | humidity % | barometer mb |
| 20260506132607 | 20 | 239 | 11.3 | 16.1 | 0.00 | 0.84 | 0.81 | 68 | 1004.4 |
| 20260506132106 | 20 | 280 | 8.0 | 20.9 | 0.00 | 0.84 | 0.81 | 68 | 1004.5 |
| 20260506131606 | 20 | 335 | 8.0 | 20.9 | 0.00 | 0.84 | 0.81 | 68 | 1004.4 |
| 20260506131356 | 20 | 276 | 11.3 | 20.9 | 0.00 | 0.84 | 0.81 | 66 | 1004.4 |
| 20260506130606 | 21 | 256 | 11.3 | 20.9 | 0.00 | 0.84 | 0.81 | 66 | 1004.4 |
| 20260506130106 | 21 | 239 | 12.9 | 20.9 | 0.00 | 0.84 | 0.81 | 66 | 1004.4 |
| 20260506125607 | 20 | 293 | 11.3 | 19.3 | 0.00 | 0.84 | 0.81 | 67 | 1004.4 |
| 20260506125106 | 20 | 313 | 6.4 | 27.4 | 0.00 | 0.84 | 0.81 | 67 | 1004.4 |
| 20260506124606 | 20 | 300 | 17.7 | 27.4 | 0.00 | 0.84 | 0.81 | 66 | 1004.3 |
| 20260506124106 | 20 | 253 | 11.3 | 25.7 | 0.00 | 0.84 | 0.81 | 65 | 1004.2 |
| 20260506123607 | 20 | 263 | 17.7 | 25.7 | 0.00 | 0.84 | 0.81 | 67 | 1004.3 |
| 20260506123106 | 20 | 228 | 14.5 | 29.0 | 0.00 | 0.84 | 0.81 | 69 | 1004.4 |
| 20260506122607 | 20 | 239 | 20.9 | 29.0 | 0.00 | 0.84 | 0.81 | 69 | 1004.4 |
| 20260506122107 | 20 | 248 | 12.9 | 22.5 | 0.00 | 0.84 | 0.81 | 68 | 1004.4 |
| 20260506121608 | 20 | 293 | 11.3 | 22.5 | 0.00 | 0.84 | 0.81 | 69 | 1004.4 |
| 20260506121130 | 20 | 272 | 14.5 | 29.0 | 0.00 | 0.84 | 0.81 | 63 | 1004.3 |
| 20260506121125 | 20 | 242 | 11.3 | 29.0 | 0.00 | 0.84 | 0.81 | 69 | 1004.5 |
| 20260506120104 | 20 | 276 | 14.5 | 22.5 | 0.00 | 0.84 | 0.81 | 64 | 1004.3 |
| 20260506115549 | 20 | 269 | 9.7 | 22.5 | 0.00 | 0.84 | 0.81 | 67 | 1004.1 |
| 20260506115037 | 19 | 189 | 11.3 | 24.1 | 0.00 | 0.84 | 0.81 | 68 | 1004.2 |
| 20260506114533 | 18 | 198 | 14.5 | 24.1 | 0.00 | 0.84 | 0.81 | 69 | 1004.2 |
| 20260506114034 | 18 | 279 | 11.3 | 19.3 | 0.00 | 0.84 | 0.81 | 70 | 1004.3 |
| 20260506113532 | 17 | 221 | 6.4 | 24.1 | 0.00 | 0.84 | 0.81 | 72 | 1004.3 |
| 20260506113033 | 17 | 252 | 14.5 | 24.1 | 0.00 | 0.84 | 0.81 | 74 | 1004.3 |
| 20260506112818 | 17 | 211 | 8.0 | 19.3 | 0.00 | 0.84 | 0.81 | 75 | 1004.4 |
| 20260506112813 | 17 | 270 | 14.5 | 24.1 | 0.00 | 0.84 | 0.81 | 75 | 1004.3 |
| 20260506111510 | 16 | 234 | 11.3 | 19.3 | 0.00 | 0.84 | 0.81 | 76 | 1004.3 |
| 20260506111058 | 16 | 242 | 14.5 | 20.9 | 0.00 | 0.84 | 0.81 | 75 | 1004.2 |
| 20260506111039 | 16 | 232 | 9.7 | 19.3 | 0.00 | 0.84 | 0.81 | 76 | 1004.3 |
| 20260506105956 | 16 | 253 | 11.3 | 19.3 | 0.00 | 0.84 | 0.81 | 74 | 1004.2 |
| 20260506105750 | 16 | 224 | 11.3 | 19.3 | 0.00 | 0.84 | 0.81 | 73 | 1004.2 |
| 20260506105232 | -17 | 0.0 | 0.0 | 0.00 | 0.84 | 0.81 | |||
| 20260506104732 | 16 | 259 | 11.3 | 14.5 | 0.00 | 0.84 | 0.81 | 73 | 1004.2 |
| 20260506104448 | 16 | 259 | 11.3 | 24.1 | 0.00 | 0.84 | 0.81 | 73 | 1004.2 |
| 20260506103722 | 16 | 269 | 11.3 | 24.1 | 0.00 | 0.84 | 0.81 | 74 | 1004.1 |
| 20260506103221 | 16 | 272 | 16.1 | 22.5 | 0.00 | 0.84 | 0.81 | 74 | 1004.1 |
| 20260506103008 | 17 | 222 | 17.7 | 22.5 | 0.00 | 0.84 | 0.81 | 74 | 1004.0 |
| 20260506102221 | 17 | 246 | 12.9 | 17.7 | 0.00 | 0.84 | 0.81 | 74 | 1004.1 |
| 20260506101958 | 17 | 276 | 12.9 | 20.9 | 0.00 | 0.84 | 0.81 | 73 | 1004.1 |
| 20260506101221 | 17 | 253 | 19.3 | 20.9 | 0.00 | 0.84 | 0.81 | 75 | 1004.0 |
| 20260506100721 | 17 | 260 | 9.7 | 16.1 | 0.00 | 0.84 | 0.81 | 75 | 1004.0 |
| 20260506100206 | 17 | 252 | 9.7 | 16.1 | 0.00 | 0.84 | 0.81 | 75 | 1003.9 |
| 20260506095703 | 17 | 258 | 12.9 | 22.5 | 0.00 | 0.84 | 0.81 | 75 | 1003.7 |
| 20260506095205 | 17 | 221 | 14.5 | 22.5 | 0.00 | 0.84 | 0.81 | 73 | 1003.7 |
| 20260506094705 | 17 | 225 | 12.9 | 22.5 | 0.00 | 0.84 | 0.81 | 72 | 1003.7 |
| 20260506094443 | 17 | 238 | 16.1 | 22.5 | 0.00 | 0.84 | 0.81 | 72 | 1003.5 |
| 20260506093704 | 17 | 260 | 14.5 | 22.5 | 0.00 | 0.84 | 0.81 | 72 | 1003.6 |
| 20260506093204 | 17 | 203 | 14.5 | 20.9 | 0.00 | 0.84 | 0.81 | 74 | 1003.7 |
| 20260506092704 | 17 | 259 | 12.9 | 20.9 | 0.00 | 0.84 | 0.81 | 74 | 1003.4 |
| 20260506092452 | 17 | 218 | 11.3 | 17.7 | 0.00 | 0.84 | 0.81 | 75 | 1003.4 |
| 20260506091704 | 17 | 263 | 9.7 | 16.1 | 0.00 | 0.84 | 0.81 | 75 | 1003.4 |
| 20260506091204 | 16 | 228 | 11.3 | 22.5 | 0.00 | 0.84 | 0.81 | 75 | 1003.2 |
| 20260506090703 | 16 | 231 | 16.1 | 22.5 | 0.00 | 0.84 | 0.81 | 75 | 1003.3 |
| 20260506090226 | 17 | 241 | 16.1 | 27.4 | 0.00 | 0.84 | 0.81 | 75 | 1003.2 |
| 20260506090218 | 16 | 220 | 14.5 | 27.4 | 0.00 | 0.84 | 0.81 | 75 | 1003.4 |
| 20260506085204 | 17 | 263 | 12.9 | 22.5 | 0.00 | 0.84 | 0.81 | 78 | 1003.2 |
| 20260506084705 | 16 | 293 | 9.7 | 20.9 | 0.00 | 0.84 | 0.81 | 79 | 1003.1 |
| 20260506084204 | 16 | 194 | 12.9 | 20.9 | 0.00 | 0.84 | 0.81 | 78 | 1003.2 |
| 20260506083703 | 16 | 234 | 9.7 | 24.1 | 0.00 | 0.84 | 0.81 | 78 | 1003.1 |
| 20260506083204 | 16 | 225 | 12.9 | 24.1 | 0.00 | 0.84 | 0.81 | 78 | 1003.1 |
| 20260506082704 | 16 | 204 | 14.5 | 20.9 | 0.00 | 0.84 | 0.81 | 78 | 1003.1 |
| 20260506082203 | 16 | 300 | 12.9 | 19.3 | 0.00 | 0.84 | 0.81 | 79 | 1003.0 |
| 20260506081941 | 16 | 237 | 12.9 | 20.9 | 0.03 | 0.84 | 0.81 | 79 | 1003.1 |
| 20260506081445 | 16 | 211 | 17.7 | 24.1 | 0.03 | 0.84 | 0.81 | 81 | 1002.9 |
| 20260506080942 | 16 | 256 | 14.5 | 24.1 | 0.03 | 0.84 | 0.81 | 83 | 1003.0 |
| 20260506080205 | 15 | 246 | 8.0 | 24.1 | 0.03 | 0.84 | 0.81 | 85 | 1003.0 |
| 20260506073204 | 14 | 217 | 9.7 | 19.3 | 0.03 | 0.81 | 0.81 | 89 | 1003.3 |
| 20260506072946 | 14 | 201 | 9.7 | 19.3 | 0.03 | 0.81 | 0.81 | 90 | 1003.3 |
| 20260506072204 | 13 | 193 | 11.3 | 14.5 | 0.03 | 0.81 | 0.81 | 90 | 1003.2 |
| 20260506071704 | 13 | 194 | 8.0 | 14.5 | 0.00 | 0.81 | 0.79 | 90 | 1003.1 |
| 20260506071205 | 13 | 208 | 9.7 | 14.5 | 0.00 | 0.81 | 0.79 | 91 | 1003.1 |
| 20260506070633 | 13 | 203 | 9.7 | 14.5 | 0.00 | 0.81 | 0.79 | 91 | 1003.2 |
| 20260506070135 | 13 | 215 | 8.0 | 11.3 | 0.00 | 0.81 | 0.79 | 91 | 1003.4 |
| 20260506062134 | 12 | 149 | 3.2 | 4.8 | 0.00 | 0.81 | 0.79 | 91 | 1003.3 |
| 20260506061634 | 12 | 158 | 3.2 | 4.8 | 0.00 | 0.81 | 0.79 | 91 | 1003.3 |
| 20260506061134 | 12 | 155 | 3.2 | 4.8 | 0.00 | 0.81 | 0.79 | 91 | 1003.3 |
| 20260506060634 | 12 | 160 | 3.2 | 9.7 | 0.00 | 0.81 | 0.79 | 91 | 1003.5 |
| 20260506060135 | 12 | 135 | 4.8 | 9.7 | 0.00 | 0.81 | 0.79 | 91 | 1003.5 |
| 20260506051133 | 11 | 139 | 4.8 | 6.4 | 0.00 | 0.81 | 0.79 | 90 | 1003.4 |
| 20260506050909 | 11 | 135 | 1.6 | 4.8 | 0.00 | 0.81 | 0.79 | 90 | 1003.5 |
| 20260506050133 | 11 | 128 | 3.2 | 4.8 | 0.00 | 0.81 | 0.79 | 90 | 1003.5 |
| 20260506045132 | 11 | 120 | 3.2 | 6.4 | 0.00 | 0.81 | 0.79 | 90 | 1003.6 |
| 20260506044633 | 11 | 120 | 3.2 | 6.4 | 0.00 | 0.81 | 0.79 | 90 | 1003.5 |
| 20260506044133 | 11 | 125 | 3.2 | 8.0 | 0.00 | 0.81 | 0.79 | 90 | 1003.5 |
| 20260506043622 | 11 | 128 | 3.2 | 8.0 | 0.00 | 0.81 | 0.79 | 90 | 1003.6 |
| 20260506043117 | 11 | 125 | 0.0 | 4.8 | 0.00 | 0.81 | 0.79 | 90 | 1003.5 |
| 20260506042623 | 11 | 125 | 1.6 | 6.4 | 0.00 | 0.81 | 0.79 | 90 | 1003.6 |
| 20260506042117 | 11 | 125 | 3.2 | 6.4 | 0.00 | 0.81 | 0.79 | 90 | 1003.6 |
| 20260506041618 | 11 | 125 | 0.0 | 3.2 | 0.00 | 0.81 | 0.79 | 90 | 1003.7 |
| 20260506041116 | 11 | 125 | 3.2 | 4.8 | 0.00 | 0.81 | 0.79 | 90 | 1003.6 |
| 20260506040619 | 11 | 125 | 1.6 | 4.8 | 0.00 | 0.81 | 0.79 | 90 | 1003.7 |
| 20260506040114 | 11 | 125 | 0.0 | 3.2 | 0.00 | 0.81 | 0.79 | 90 | 1003.9 |
| 20260506035623 | 11 | 125 | 1.6 | 0.0 | 0.00 | 0.81 | 0.79 | 90 | 1003.9 |
| 20260506035033 | 11 | 125 | 3.2 | 4.8 | 0.00 | 0.81 | 0.79 | 90 | 1003.7 |
| 20260506034532 | 11 | 125 | 3.2 | 4.8 | 0.00 | 0.81 | 0.79 | 90 | 1003.7 |
| 20260506034024 | 11 | 84 | 3.2 | 3.2 | 0.00 | 0.81 | 0.79 | 90 | 1003.7 |
| 20260506033512 | 11 | 82 | 0.0 | 1.6 | 0.00 | 0.81 | 0.79 | 90 | 1003.5 |
| 20260506033010 | 11 | 82 | 0.0 | 4.8 | 0.00 | 0.81 | 0.79 | 90 | 1003.5 |
| 20260506032510 | 11 | 82 | 1.6 | 4.8 | 0.00 | 0.81 | 0.79 | 90 | 1003.4 |
| 20260506032007 | 11 | 82 | 1.6 | 4.8 | 0.00 | 0.81 | 0.79 | 90 | 1003.4 |
| 20260506031506 | 11 | 82 | 1.6 | 6.4 | 0.00 | 0.81 | 0.79 | 90 | 1003.3 |
| 20260506031003 | 11 | 82 | 3.2 | 6.4 | 0.00 | 0.81 | 0.79 | 90 | 1003.2 |
| 20260506030502 | 11 | 61 | 3.2 | 8.0 | 0.00 | 0.81 | 0.79 | 90 | 1003.2 |
| 20260506030243 | 11 | 63 | 3.2 | 8.0 | 0.00 | 0.81 | 0.79 | 89 | 1003.2 |
| 20260506025739 | 11 | 75 | 3.2 | 8.0 | 0.03 | 0.81 | 0.79 | 89 | 1003.3 |
| 20260506024950 | 11 | 60 | 4.8 | 11.3 | 0.05 | 0.81 | 0.79 | 89 | 1003.3 |
| 20260506024450 | 11 | 91 | 4.8 | 14.5 | 0.10 | 0.81 | 0.79 | 90 | 1003.5 |
| 20260506024226 | 11 | 71 | 6.4 | 9.7 | 0.15 | 0.81 | 0.79 | 90 | 1003.4 |
| 20260506023438 | 11 | 67 | 8.0 | 14.5 | 0.20 | 0.81 | 0.79 | 89 | 1003.5 |
| 20260506022935 | 12 | 120 | 6.4 | 14.5 | 0.23 | 0.81 | 0.79 | 89 | 1003.5 |
| 20260506022439 | 12 | 57 | 4.8 | 16.1 | 0.28 | 0.81 | 0.79 | 89 | 1003.5 |
| 20260506021934 | 12 | 77 | 11.3 | 16.1 | 0.30 | 0.81 | 0.79 | 89 | 1003.6 |
| 20260506021436 | 12 | 64 | 8.0 | 11.3 | 0.30 | 0.81 | 0.79 | 89 | 1003.4 |
| 20260506020935 | 12 | 82 | 6.4 | 16.1 | 0.30 | 0.81 | 0.79 | 89 | 1003.4 |
| 20260506020435 | 12 | 61 | 8.0 | 16.1 | 0.33 | 0.81 | 0.79 | 89 | 1003.5 |
| 20260506020016 | 12 | 53 | 14.5 | 19.3 | 0.33 | 0.48 | 0.76 | 89 | 1003.2 |
| 20260506015956 | 12 | 89 | 6.4 | 19.3 | 0.33 | 0.48 | 0.79 | 89 | 1003.4 |
| 20260506014933 | 12 | 80 | 11.3 | 19.3 | 0.03 | 0.48 | 0.71 | 89 | 1003.2 |
| 20260506014434 | 12 | 84 | 8.0 | 19.3 | 0.03 | 0.48 | 0.69 | 89 | 1003.4 |
| 20260506013935 | 12 | 60 | 6.4 | 24.1 | 0.03 | 0.48 | 0.64 | 89 | 1003.6 |
| 20260506013436 | 12 | 359 | 8.0 | 24.1 | 0.05 | 0.48 | 0.61 | 89 | 1004.1 |
| 20260506013220 | 12 | 46 | 19.3 | 24.1 | 0.13 | 0.48 | 0.56 | 89 | 1004.0 |
| 20260506012736 | 12 | 36 | 8.0 | 9.7 | 0.15 | 0.48 | 0.51 | 89 | 1004.6 |
| 20260506011932 | 12 | 34 | 3.2 | 8.0 | 0.23 | 0.48 | 0.51 | 89 | 1004.9 |
| 20260506011432 | 12 | 8 | 4.8 | 8.0 | 0.23 | 0.48 | 0.51 | 89 | 1004.9 |
| 20260506010932 | 12 | 354 | 3.2 | 8.0 | 0.25 | 0.48 | 0.51 | 89 | 1004.9 |
| 20260506010434 | 12 | 342 | 4.8 | 6.4 | 0.30 | 0.48 | 0.48 | 89 | 1005.0 |
| 20260506010224 | 12 | 339 | 4.8 | 6.4 | 0.00 | 0.18 | 0.46 | 89 | 1005.1 |
| 20260506005433 | 12 | 339 | 1.6 | 4.8 | 0.00 | 0.18 | 0.43 | 89 | 1005.1 |
| 20260506005003 | 13 | 273 | 0.0 | 1.6 | 0.30 | 0.18 | 0.43 | 89 | 1005.2 |
| 20260506004505 | 13 | 273 | 0.0 | 4.8 | 0.33 | 0.18 | 0.43 | 89 | 1005.2 |
| 20260506003949 | 13 | 273 | 3.2 | 4.8 | 0.30 | 0.18 | 0.43 | 89 | 1005.3 |
| 20260506003449 | 13 | 273 | 0.0 | 6.4 | 0.28 | 0.18 | 0.41 | 88 | 1005.4 |
| 20260506002948 | 12 | 276 | 4.8 | 11.3 | 0.23 | 0.18 | 0.33 | 88 | 1005.5 |
| 20260506002448 | 13 | 253 | 6.4 | 11.3 | 0.15 | 0.18 | 0.25 | 88 | 1005.5 |
| 20260506001948 | 12 | 262 | 8.0 | 11.3 | 0.10 | 0.18 | 0.23 | 88 | 1005.5 |
| 20260506001448 | 12 | 235 | 6.4 | 11.3 | 0.13 | 0.18 | 0.20 | 88 | 1005.6 |
| 20260506000947 | 12 | 238 | 6.4 | 6.4 | 0.10 | 0.18 | 0.18 | 88 | 1005.5 |
| 20260506000446 | 12 | 41 | 3.2 | 4.8 | 0.05 | 0.18 | 0.15 | 88 | 1005.2 |
| 20260506000038 | 12 | 37 | 4.8 | 9.7 | 0.05 | 0.13 | 0.15 | 87 | 1004.9 |
| 20260506000020 | 12 | 41 | 0.0 | 8.0 | 0.05 | 0.13 | 0.15 | 87 | 1004.9 |
| 20260505235239 | 13 | 19 | 6.4 | 9.7 | 0.05 | 0.13 | 0.15 | 87 | 1004.8 |
| 20260505234448 | 13 | 34 | 4.8 | 6.4 | 0.05 | 0.13 | 0.15 | 87 | 1004.9 |
| 20260505233947 | 13 | 39 | 4.8 | 11.3 | 0.05 | 0.13 | 0.15 | 87 | 1004.9 |
| 20260505233449 | 13 | 37 | 3.2 | 11.3 | 0.05 | 0.13 | 0.13 | 87 | 1004.8 |
| 20260505232948 | 13 | 27 | 4.8 | 9.7 | 0.05 | 0.13 | 0.13 | 87 | 1004.8 |
| 20260505232443 | 13 | 33 | 4.8 | 9.7 | 0.05 | 0.13 | 0.13 | 87 | 1004.9 |
| 20260505231932 | 13 | 37 | 4.8 | 9.7 | 0.05 | 0.13 | 0.10 | 87 | 1005.0 |
| 20260505231431 | 13 | 10 | 6.4 | 8.0 | 0.03 | 0.13 | 0.10 | 87 | 1004.9 |
| 20260505231232 | 13 | 40 | 3.2 | 4.8 | 0.05 | 0.13 | 0.10 | 87 | 1005.0 |
| 20260505230433 | 13 | 41 | 3.2 | 4.8 | 0.10 | 0.13 | 0.10 | 87 | 1005.2 |
| 20260505230217 | 13 | 50 | 1.6 | 6.4 | 0.13 | 0.03 | 0.10 | 87 | 1005.2 |
| 20260505225433 | 13 | 50 | 0.0 | 9.7 | 0.13 | 0.03 | 0.10 | 86 | 1004.9 |
| 20260505224933 | 13 | 49 | 8.0 | 11.3 | 0.13 | 0.03 | 0.10 | 86 | 1004.7 |
| 20260505224431 | 13 | 58 | 8.0 | 17.7 | 0.13 | 0.03 | 0.10 | 86 | 1004.6 |
| 20260505224219 | 13 | 56 | 8.0 | 19.3 | 0.10 | 0.03 | 0.08 | 86 | 1004.6 |
| 20260505223431 | 13 | 60 | 8.0 | 19.3 | 0.10 | 0.03 | 0.08 | 85 | 1004.4 |
| 20260505222934 | 13 | 34 | 6.4 | 17.7 | 0.10 | 0.03 | 0.08 | 85 | 1004.6 |
| 20260505222432 | 13 | 68 | 8.0 | 17.7 | 0.10 | 0.03 | 0.08 | 85 | 1004.8 |
| 20260505221932 | 13 | 36 | 6.4 | 16.1 | 0.10 | 0.03 | 0.08 | 84 | 1004.6 |
| 20260505221431 | 13 | 29 | 6.4 | 14.5 | 0.10 | 0.03 | 0.08 | 84 | 1004.9 |
| 20260505220935 | 14 | 49 | 8.0 | 14.5 | 0.08 | 0.03 | 0.05 | 83 | 1004.9 |
| 20260505220741 | 14 | 43 | 8.0 | 9.7 | 0.03 | 0.03 | 0.00 | 82 | 1005.1 |
| 20260505215932 | 14 | 74 | 6.4 | 9.7 | 0.00 | 0.00 | 0.00 | 82 | 1005.5 |
| 20260505215729 | 14 | 94 | 6.4 | 8.0 | 0.00 | 0.00 | 0.00 | 82 | 1005.7 |
| 20260505214932 | 14 | 61 | 4.8 | 6.4 | 0.00 | 0.00 | 0.00 | 81 | 1005.6 |
| 20260505214432 | 14 | 67 | 3.2 | 6.4 | 0.00 | 0.00 | 0.00 | 81 | 1005.7 |
| 20260505213934 | 14 | 80 | 4.8 | 6.4 | 0.00 | 0.00 | 0.00 | 81 | 1005.7 |
| 20260505213432 | 14 | 70 | 3.2 | 6.4 | 0.00 | 0.00 | 0.00 | 81 | 1005.8 |
| 20260505212933 | 14 | 71 | 3.2 | 6.4 | 0.00 | 0.00 | 0.00 | 81 | 1005.8 |
| 20260505212430 | 14 | 70 | 6.4 | 8.0 | 0.00 | 0.00 | 0.00 | 81 | 1005.9 |
| 20260505212226 | 14 | 41 | 4.8 | 8.0 | 0.00 | 0.00 | 0.00 | 81 | 1005.8 |
| 20260505211424 | 14 | 34 | 3.2 | 8.0 | 0.00 | 0.00 | 0.00 | 81 | 1005.9 |
| 20260505210904 | 14 | 30 | 1.6 | 6.4 | 0.00 | 0.00 | 0.00 | 81 | 1006.0 |
| 20260505210403 | 14 | 30 | 3.2 | 9.7 | 0.00 | 0.00 | 0.00 | 80 | 1005.9 |
| 20260505205903 | 14 | 26 | 4.8 | 9.7 | 0.00 | 0.00 | 0.00 | 80 | 1005.8 |
| 20260505205404 | 14 | 34 | 6.4 | 9.7 | 0.00 | 0.00 | 0.00 | 80 | 1005.7 |
| 20260505204904 | 14 | 27 | 6.4 | 8.0 | 0.00 | 0.00 | 0.00 | 80 | 1005.9 |
| 20260505204406 | 14 | 56 | 4.8 | 9.7 | 0.00 | 0.00 | 0.00 | 80 | 1005.9 |
| 20260505203905 | 14 | 60 | 6.4 | 11.3 | 0.00 | 0.00 | 0.00 | 80 | 1005.9 |
| 20260505203405 | 14 | 47 | 4.8 | 11.3 | 0.00 | 0.00 | 0.00 | 80 | 1005.9 |
| 20260505202905 | 15 | 44 | 4.8 | 9.7 | 0.00 | 0.00 | 0.00 | 80 | 1005.9 |
| 20260505202404 | 15 | 53 | 6.4 | 14.5 | 0.00 | 0.00 | 0.00 | 80 | 1006.0 |
| 20260505201905 | 15 | 84 | 8.0 | 14.5 | 0.00 | 0.00 | 0.00 | 80 | 1005.9 |
| 20260505201652 | 15 | 54 | 6.4 | 11.3 | 0.00 | 0.00 | 0.00 | 80 | 1006.0 |
| 20260505201148 | 15 | 32 | 6.4 | 11.3 | 0.00 | 0.00 | 0.00 | 80 | 1005.9 |
| 20260505200705 | 15 | 60 | 8.0 | 11.3 | 0.00 | 0.00 | 0.00 | 79 | 1005.9 |
| 20260505195905 | 15 | 10 | 6.4 | 14.5 | 0.00 | 0.00 | 0.00 | 79 | 1005.8 |
| 20260505195657 | 15 | 54 | 6.4 | 14.5 | 0.00 | 0.00 | 0.00 | 79 | 1005.8 |
| 20260505194905 | 15 | 41 | 4.8 | 19.3 | 0.00 | 0.00 | 0.00 | 79 | 1005.7 |
| 20260505194403 | 15 | 57 | 11.3 | 19.3 | 0.00 | 0.00 | 0.00 | 79 | 1005.6 |
| 20260505193903 | 15 | 36 | 9.7 | 17.7 | 0.00 | 0.00 | 0.00 | 79 | 1005.6 |
| 20260505193403 | 15 | 46 | 11.3 | 17.7 | 0.00 | 0.00 | 0.00 | 79 | 1005.5 |
| 20260505193155 | 15 | 40 | 9.7 | 17.7 | 0.00 | 0.00 | 0.00 | 78 | 1005.6 |
| 20260505192713 | 15 | 37 | 11.3 | 17.7 | 0.00 | 0.00 | 0.00 | 78 | 1005.6 |
| 20260505191905 | 15 | 26 | 3.2 | 11.3 | 0.00 | 0.00 | 0.00 | 78 | 1005.8 |
| 20260505191403 | 15 | 39 | 9.7 | 11.3 | 0.00 | 0.00 | 0.00 | 78 | 1005.7 |
| 20260505190904 | 15 | 29 | 6.4 | 11.3 | 0.00 | 0.00 | 0.00 | 78 | 1005.7 |
| 20260505190405 | 15 | 44 | 4.8 | 14.5 | 0.00 | 0.00 | 0.00 | 77 | 1005.7 |
| 20260505185904 | 15 | 33 | 9.7 | 14.5 | 0.00 | 0.00 | 0.00 | 77 | 1005.7 |
| 20260505185404 | 16 | 26 | 6.4 | 17.7 | 0.00 | 0.00 | 0.00 | 77 | 1005.7 |
| 20260505184903 | 16 | 29 | 9.7 | 17.7 | 0.00 | 0.00 | 0.00 | 77 | 1005.7 |
| 20260505184343 | 16 | 41 | 8.0 | 14.5 | 0.00 | 0.00 | 0.00 | 77 | 1005.8 |
| 20260505183843 | 16 | 15 | 6.4 | 11.3 | 0.00 | 0.00 | 0.00 | 77 | 1005.9 |
| 20260505183341 | 16 | 29 | 6.4 | 11.3 | 0.00 | 0.00 | 0.00 | 77 | 1005.9 |
| 20260505183124 | 16 | 22 | 8.0 | 9.7 | 0.00 | 0.00 | 0.00 | 76 | 1005.9 |
| 20260505182342 | 16 | 29 | 6.4 | 11.3 | 0.00 | 0.00 | 0.00 | 76 | 1006.0 |
| 20260505181843 | 16 | 54 | 8.0 | 11.3 | 0.00 | 0.00 | 0.00 | 76 | 1006.0 |
| 20260505181342 | 16 | 37 | 8.0 | 11.3 | 0.00 | 0.00 | 0.00 | 76 | 1006.0 |
| 20260505180843 | 16 | 13 | 6.4 | 11.3 | 0.00 | 0.00 | 0.00 | 76 | 1005.9 |
| 20260505180341 | 16 | 32 | 3.2 | 14.5 | 0.00 | 0.00 | 0.00 | 74 | 1006.1 |
| 20260505175840 | 17 | 26 | 8.0 | 14.5 | 0.00 | 0.00 | 0.00 | 74 | 1006.0 |
| 20260505175621 | 17 | 37 | 6.4 | 14.5 | 0.00 | 0.00 | 0.00 | 74 | 1006.0 |
| 20260505174840 | 17 | 36 | 9.7 | 16.1 | 0.00 | 0.00 | 0.00 | 74 | 1005.9 |
| 20260505174340 | 17 | 46 | 8.0 | 16.1 | 0.00 | 0.00 | 0.00 | 74 | 1005.8 |
| 20260505173840 | 17 | 58 | 9.7 | 16.1 | 0.00 | 0.00 | 0.00 | 75 | 1005.8 |
| 20260505173341 | 17 | 56 | 8.0 | 14.5 | 0.00 | 0.00 | 0.00 | 75 | 1005.9 |
| 20260505173017 | 17 | 9 | 4.8 | 19.3 | 0.00 | 0.00 | 0.00 | 73 | 1005.9 |
| 20260505172950 | 17 | 29 | 9.7 | 14.5 | 0.00 | 0.00 | 0.00 | 75 | 1005.9 |
| 20260505172409 | 17 | 8 | 11.3 | 14.5 | 0.00 | 0.00 | 0.00 | 74 | 1005.9 |
| 20260505171340 | 17 | 20 | 12.9 | 19.3 | 0.00 | 0.00 | 0.00 | 73 | 1005.9 |
| 20260505170839 | 17 | 15 | 9.7 | 22.5 | 0.00 | 0.00 | 0.00 | 73 | 1006.1 |
| 20260505170339 | 18 | 22 | 12.9 | 22.5 | 0.00 | 0.00 | 0.00 | 73 | 1005.9 |
| 20260505165840 | 18 | 41 | 8.0 | 20.9 | 0.00 | 0.00 | 0.00 | 73 | 1006.0 |
| 20260505165341 | 18 | 19 | 9.7 | 20.9 | 0.00 | 0.00 | 0.00 | 73 | 1006.0 |
| 20260505164842 | 18 | 26 | 16.1 | 20.9 | 0.00 | 0.00 | 0.00 | 72 | 1006.0 |
| 20260505164408 | 18 | 34 | 11.3 | 16.1 | 0.00 | 0.00 | 0.00 | 72 | 1006.0 |
| 20260505164359 | 18 | 358 | 16.1 | 20.9 | 0.00 | 0.00 | 0.00 | 72 | 1006.1 |
| 20260505163339 | 18 | 29 | 9.7 | 19.3 | 0.00 | 0.00 | 0.00 | 70 | 1006.0 |
| 20260505163114 | 18 | 8 | 14.5 | 19.3 | 0.00 | 0.00 | 0.00 | 70 | 1006.0 |
| 20260505162339 | 19 | 6 | 9.7 | 17.7 | 0.00 | 0.00 | 0.00 | 70 | 1006.1 |
| 20260505162120 | 19 | 32 | 11.3 | 17.7 | 0.00 | 0.00 | 0.00 | 69 | 1006.1 |
| 20260505161622 | 19 | 47 | 9.7 | 14.5 | 0.00 | 0.00 | 0.00 | 69 | 1006.2 |
| 20260505160839 | 19 | 30 | 8.0 | 17.7 | 0.00 | 0.00 | 0.00 | 69 | 1006.1 |
| 20260505160338 | 19 | 10 | 11.3 | 19.3 | 0.00 | 0.00 | 0.00 | 69 | 1006.2 |
| 20260505152837 | 20 | 44 | 12.9 | 20.9 | 0.00 | 0.00 | 0.00 | 68 | 1006.1 |
| 20260505152338 | 20 | 46 | 11.3 | 22.5 | 0.00 | 0.00 | 0.00 | 68 | 1006.2 |
| 20260505151837 | 20 | 25 | 11.3 | 22.5 | 0.00 | 0.00 | 0.00 | 68 | 1006.1 |
| 20260505151337 | 20 | 58 | 14.5 | 20.9 | 0.00 | 0.00 | 0.00 | 69 | 1006.1 |
| 20260505150839 | 20 | 10 | 14.5 | 25.7 | 0.00 | 0.00 | 0.00 | 68 | 1006.1 |
| 20260505150615 | 20 | 354 | 17.7 | 25.7 | 0.00 | 0.00 | 0.00 | 68 | 1006.2 |
| 20260505140334 | 21 | 32 | 11.3 | 22.5 | 0.00 | 0.00 | 0.00 | 68 | 1006.7 |